Find Starlink 3859

NORAD ID: 52470 Int'l Des: 2022-049 Owner: SPXS Country: US Constellation: starlink operational
LEOCIRCULAR

Live-Position

3D-Globus wird geladen...

Über Starlink 3859

Beschreibung wird geladen...

Nächste Überflüge

Passes for default location (London). Set your location on the main map for personalized predictions.

Höhenverlauf

Loading altitude history...

Zweizeiliger Elementsatz

1 52470U 22049V 26122.42986281 -.00000306 00000-0 -11214-5 0 9993
2 52470 53.2168 177.8702 0001203 89.2305 270.8825 15.08837178220363
Epoch: 2. Mai 2026 • Age: 21 hours

Aktueller Status

Höhe 540.6 km
Geschwindigkeit 7.60 km/s
Subsatellitenpunkt 27.37°N, 131.65°W
Startdatum 6. Mai 2022
Alter 3.9 years
Typ internet

Technische Details

Klassifizierung Payload
Masse 297.00 kg
Trockenmasse 220.00 kg
Gesamtmasse 297.00 kg
Länge 0.20 m
Durchmesser 2.80 m
Spannweite 9.00 m
Form Box + pan
Hersteller SPXS
Bus-Typ Starlink
Phasenstatus In Orbit
Besitzer/Staat SPXS/US

Most Searched